Date,TemperatureHighF,TemperatureAvgF,TemperatureLowF,DewpointHighF,DewpointAvgF,DewpointLowF,HumidityHigh,HumidityAvg,HumidityLow,PressureMaxIn,PressureMinIn,WindSpeedMaxMPH,WindSpeedAvgMPH,GustSpeedMaxMPH,PrecipitationSumIn
2013-7-1,75,73,72,74,72,70,97,96,95,30.07,29.92,2,0,4,0.25
2013-7-2,78,74,72,76,73,70,96,95,90,30.19,30.07,2,0,5,0.00
2013-7-3,82,75,70,76,73,69,96,93,82,30.25,30.18,1,0,3,0.00
2013-7-4,86,77,72,79,74,70,97,91,79,30.25,30.17,2,0,4,0.00
2013-7-5,87,79,72,79,75,70,96,87,76,30.21,30.10,2,0,4,0.00
2013-7-6,90,81,74,80,76,73,96,86,71,30.13,30.02,1,0,3,0.00
2013-7-7,89,82,75,79,76,74,95,84,67,30.05,29.93,2,0,3,0.00
2013-7-8,87,79,72,76,72,69,92,81,65,30.03,29.95,2,0,5,0.00
2013-7-9,85,78,70,76,73,68,94,84,67,30.06,29.99,2,0,4,0.00
2013-7-10,85,78,74,78,75,72,96,90,80,30.02,29.81,2,0,5,0.00
2013-7-11,81,76,73,76,74,69,96,92,82,29.91,29.80,0,0,2,0.02
2013-7-12,76,72,67,72,69,66,96,91,87,30.10,29.91,2,0,7,0.60
2013-7-13,81,74,68,79,73,66,97,96,93,30.28,30.11,0,0,4,0.09
2013-7-14,87,79,73,79,75,72,97,89,73,30.32,30.23,2,0,6,0.00
2013-7-15,91,82,75,80,76,74,95,82,66,30.23,30.12,1,0,6,0.00
2013-7-16,90,82,74,75,73,71,94,77,57,30.17,30.11,2,0,6,0.00
2013-7-17,91,82,74,79,75,72,94,80,59,30.18,30.07,1,0,4,0.00
2013-7-18,95,84,76,80,77,73,92,79,60,30.06,29.95,2,0,5,0.00
2013-7-19,94,85,80,83,79,77,94,84,70,29.96,29.80,3,1,6,0.00
2013-7-20,90,83,76,79,77,74,96,84,69,29.82,29.71,2,0,6,0.00
2013-7-21,84,78,72,74,71,67,95,81,61,29.96,29.82,2,0,4,0.00
2013-7-22,86,77,72,78,74,70,96,91,77,29.96,29.83,1,0,4,0.00
2013-7-23,84,77,70,78,74,68,97,92,80,29.81,29.55,3,0,5,0.00
2013-7-24,82,75,70,75,71,63,96,86,73,29.89,29.59,2,0,7,0.00
2013-7-25,70,63,61,62,59,56,97,87,76,30.04,29.90,3,1,8,0.00
2013-7-26,76,66,60,68,64,60,97,92,75,30.05,29.95,3,0,5,0.00
2013-7-27,80,72,66,71,68,65,97,87,65,30.06,29.97,2,0,3,0.00
2013-7-28,79,72,67,72,69,66,97,90,70,30.00,29.94,1,0,4,0.00
2013-7-29,85,76,69,75,71,64,97,85,61,30.06,29.95,1,0,4,0.00
2013-7-30,79,71,62,63,62,60,93,74,56,30.15,30.08,4,0,6,0.00
2013-7-31,79,71,63,66,64,61,96,80,60,30.15,30.05,2,0,4,0.00